Regional Weather Roundup
Issued by NWS

Home | Current Version | Previous Version | Graphics & Text | Print | Product List | Glossary On
Versions: 1 2 3 4 5 6 7 8 9 10 11 12 13 14 15 16 17 18 19 20 21 22 23 24 25 26 27 28 29 30 31 32 33 34 35 36 37 38 39 40 41 42 43 44 45 46 47 48 49 50
000
ASUS43 KLOT 252306
RWRIL

ILLINOIS REGIONAL WEATHER ROUNDUP
NATIONAL WEATHER SERVICE CHICAGO/ROMEOVILLE IL
600 PM CDT SAT OCT 25 2014

NOTE: "FAIR" INDICATES FEW OR NO CLOUDS BELOW 12,000 FEET WITH NO
SIGNIFICANT WEATHER AND/OR OBSTRUCTIONS TO VISIBILITY.

* THESE STATIONS ARE NOT UNDER NWS QUALITY CONTROL. THEY ALSO MAY NOT
  REPORT WEATHER SUCH AS PRECIPITATION OR FOG.

ILZ001-002-007-009-015-016-024-260000-
NORTHWEST ILLINOIS

CITY           SKY/WX    TMP DP  RH WIND       PRES   REMARKS
MOLINE         CLEAR     67  33  28 NW9       30.00R
STERLING*      CLEAR     63  34  34 NW9       29.98S
SAVANNA*       CLEAR     67  31  26 W9        29.98S
$$

ILZ003-004-008-010-011-017-018-260000-
NORTH CENTRAL ILLINOIS

CITY           SKY/WX    TMP DP  RH WIND       PRES   REMARKS
ROCKFORD       CLEAR     65  28  24 NW15      29.96S
FREEPORT*      CLEAR     62  32  33 W8        29.99R
ROCHELLE*      CLEAR     61  33  33 W8        29.96S
DE KALB*       CLEAR     63  28  27 W10       29.95F
PERU*          CLEAR     65  34  30 W12       29.98R
$$

ILZ005-006-012>014-019>023-260000-
NORTHEAST ILLINOIS

CITY           SKY/WX    TMP DP  RH WIND       PRES   REMARKS
CHICAGO-OHARE  CLEAR     66  26  22 W13       29.91S
CHICAGO-MIDWAY CLEAR     69  26  20 W12       29.91S
AURORA         CLEAR     62  32  32 W10       29.94S
LANSING*       CLEAR     67  28  22 NW9G22    29.91S
JOLIET*        CLEAR     67  30  25 W7        29.94S
WAUKEGAN       CLEAR     63  26  24 W6        29.90R
DUPAGE AIRPORT CLEAR     65  27  23 NW12      29.93R
KANKAKEE*      CLEAR     64  39  40 W7        29.94S
WHEELING       CLEAR     67  27  22 W7        29.92S
MORRIS*        CLEAR     66  35  30 W15       29.94R
ROMEOVILLE*    CLEAR     65  26  22 W10       29.93S
NORTHERLY ISL    N/A     69  27  20 W9          N/A
$$

LMZ740>746-260000-
SOUTHERN LAKE MICHIGAN

STATION/POSITION SKY/WX   TEMP    WIND        PRES    VSBY  WAVE
                          AIR SEA DIR/SP/G                  HT/PER
                          (F)     (DEG/KT/KT) (MB)    (MI)  (FT/S)
SOUTHERN BUOY              58 54  280/ 12/ 14 1011.6R         1/ 3
WAUKEGAN HARBOR            68     290/  8/ 13   N/A
HARRISON CRIB              69     280/ 19/ 22   N/A
BURNHAM HARBOR             69     270/  9/ 18   N/A
CALUMET HARBOR             69     270/  6/ 11 1011.5S
MICHIGAN CITY              61     250/  9/ 10   N/A
$$

ILZ025>027-034>036-040-047-049-050-058-095>099-260000-
WEST-CENTRAL ILLINOIS

CITY           SKY/WX    TMP DP  RH WIND       PRES   REMARKS
QUINCY         CLEAR     69  46  43 NW5       30.02S HAZE
GALESBURG*     CLEAR     64  38  38 W7        30.02R
MACOMB*        CLEAR     65  43  44 NW7       30.04S
JACKSONVILLE*  CLEAR     72  47  41 W3        30.01S
PITTSFIELD*    CLEAR     72  46  40 NW3       30.03S
$$

ILZ028>032-037-038-041>044-048-051>054-059>061-260000-
CENTRAL ILLINOIS

CITY           SKY/WX    TMP DP  RH WIND       PRES   REMARKS
PONTIAC        CLEAR     64  41  42 W7        29.97S
BLOOMINGTON    CLEAR     68  40  35 W8        30.00S
DECATUR        CLEAR     71  48  43 NW6       30.00R
PEORIA         CLEAR     71  38  29 W3        30.00R
LACON*         CLEAR     66  35  31 W3        29.98R
LINCOLN*       CLEAR     72  46  39 W3        29.97S
SPRINGFIELD    CLEAR     73  44  35 W6        30.00S
TAYLORVILLE    CLEAR     72  46  40 W3        30.00S
$$

ILZ033-039-045-046-055>057-062-063-260000-
EAST-CENTRAL ILLINOIS

CITY           SKY/WX    TMP DP  RH WIND       PRES   REMARKS
CHAMPAIGN      CLEAR     64  47  53 W8        29.98S
DANVILLE*      CLEAR     68  43  41 W8        29.93S
RANTOUL*       CLEAR     68  46  44 W7        29.97R
MATTOON        CLEAR     65  48  54 W8        29.98R
PARIS*         CLEAR     69  48  46 NW3       29.97S
$$

ILZ079-100>102-260000-
SOUTHWEST ILLINOIS

CITY           SKY/WX    TMP DP  RH WIND       PRES   REMARKS
BELLEVILLE     CLEAR     74  58  57 CALM      29.99F
CAHOKIA*       CLEAR     75  52  44 CALM      30.00S
SPARTA*        CLEAR     76  56  50 CALM      30.01S
$$

ILZ064>066-069>071-074>076-080>082-084>086-088>090-092>094-260000-
SOUTH-CENTRAL ILLINOIS

CITY           SKY/WX    TMP DP  RH WIND       PRES   REMARKS
CARBONDALE     CLEAR     75  54  47 N3        30.00S
CAIRO*           N/A     77  59  53 CALM      30.00S HAZE
EFFINGHAM*     CLEAR     70  47  44 W5        29.99S
MARION         CLEAR     75  55  50 NW8       30.01S
MT. VERNON     CLEAR     70  52  52 CALM      30.01S
CENTRALIA*     CLEAR     72  52  49 CALM      30.00F
SALEM*         CLEAR     73  55  53 CALM      30.01S
METROPOLIS*    CLEAR     72  62  70 CALM      30.00S
$$

ILZ067-068-072-073-078-083-087-091-260000-
SOUTHEAST ILLINOIS

CITY           SKY/WX    TMP DP  RH WIND       PRES   REMARKS
LAWRENCEVILLE  HAZE      73  52  47 W6        29.98S VSB 1/2
FLORA*         CLEAR     71  52  51 CALM      30.00S
FAIRFIELD*     CLEAR     70  53  54 CALM      29.99S
HARRISBURG*    CLEAR     76  52  43 CALM      30.01S
ROBINSON*      CLEAR     72  49  45 W6        29.98S
CARMI*         CLEAR     74  55  50 W3        29.99S
$$

ABBREVIATIONS USED IN REMARKS
   TC - TEMPERATURE IN CELSIUS
  WCI - WIND CHILL INDEX
   HX - HEAT INDEX
  VSB - VISIBILITY
$$




USA.gov is the U.S. government's official web portal to all federal, state and local government web resources and services.